Location: Unspecified
(0.0000°N, 0.0000°E)
Time: 13:41:04
(UTC+00:00)

SJ 16-02 - Pass Details

Date: 07 January 2026
Orbit: 582 x 594 km, 75.0° (Epoch: 29 March)

Event Time Altitude Azimuth Distance (km) Brightness Sun altitude
Rises 20:28:16 0° 316° (NW) 2,804 4.9 -32.5°
Reaches altitude 10° 20:31:21 10° 292° (WNW) 1,910 4.3 -33.1°
Maximum altitude 20:33:43 15° 258° (WSW) 1,634 4.2 -33.7°
Drops below altitude 10° 20:36:05 10° 224° (SW) 1,919 4.6 -34.2°
Sets 20:39:13 0° 200° (SSW) 2,826 5.3 -34.9°
